Location: Denia
(38.8500°N, 0.1170°E)
Time: 11:53:53
(UTC+01:00)

Envisat - Pass Details

Date: 20 January 2020
Orbit: 764 x 766 km, 98.1° (Epoch: 25 February)

Event Time Altitude Azimuth Distance (km) Brightness Sun altitude
Rises 19:51:39 0° 200° (SSW) 3,218 6.6 -20.3°
Reaches altitude 10° 19:54:24 10° 214° (SW) 2,297 6.0 -20.8°
Maximum altitude 19:58:22 23° 266° (W) 1,594 5.5 -21.5°
Drops below altitude 10° 20:02:21 10° 318° (NW) 2,309 5.9 -22.3°
Sets 20:05:08 0° 333° (NNW) 3,240 6.5 -22.9°
